St. Charles, IL

11:40 AM CDT on June 22, 2017 (GMT -0500)
Saint Charles County Smartt

Weather History for KSET - December, 2013

Change the Weather History Date:

Wednesday, December 25, 2013

  Actual Average (KSTL) Record (KSTL)
Temperature  
Mean Temperature 30 °F -  
Max Temperature 35 °F 35 °F 71 °F (1889)
Min Temperature 24 °F 20 °F -13 °F (1983)
Degree Days  
Heating Degree Days 36    
Moisture  
Dew Point 23 °F    
Average Humidity 73    
Maximum Humidity 82    
Minimum Humidity 60    
Precipitation  
Precipitation 0.00 in - - ()
Sea Level Pressure  
Sea Level Pressure 30.31 in    
Wind  
Wind Speed 7 mph (SW)    
Max Wind Speed 13 mph    
Max Gust Speed -    
Visibility 9 miles    
Events      
Averages and records for this station are not official NWS values.
T = Trace of Precipitation, MM = Missing Value Source: NWS Daily Summary

Daily Weather History Graph

Daily Weather History Graph

Search for Another Location

Airport or City:

Trip Planner

Search our weather history database for the weather conditions in past years. The results will help you decide how hot, cold, wet, or windy it might be!

Date:

Astronomy

Dec. 25, 2013 Rise Set
Actual Time 7:18 AM CST 4:45 PM CST
Civil Twilight 6:48 AM CST 5:15 PM CST
Nautical Twilight 6:15 AM CST 5:48 PM CST
Astronomical Twilight 5:42 AM CST 6:21 PM CST
Moon No Moon Rise 11:46 AM CST (12/25)
Length of Visible Light 10h 26m
Length of Day
9h 26m
Waning Gibbous, 48% of the Moon is Illuminated
Dec 25
Waning Gibbous
Jan 1
New
Jan 7
First Quarter
Jan 15
Full
Jan 23
Last Quarter

Hourly Weather History & Observations

Time (CST) Temp. Windchill Dew Point Humidity Pressure Visibility Wind Dir Wind Speed Gust Speed Precip Events Conditions
12:54 AM 24.1 °F 15.2 °F 12.0 °F 60% 30.38 in 10.0 mi South 8.1 mph - N/A   Overcast
1:54 AM 24.1 °F 14.4 °F 12.0 °F 60% 30.35 in 10.0 mi SSE 9.2 mph - N/A   Overcast
2:54 AM 25.0 °F 16.3 °F 12.9 °F 60% 30.35 in 10.0 mi South 8.1 mph - N/A   Overcast
3:54 AM 25.0 °F 16.3 °F 15.1 °F 66% 30.33 in 10.0 mi South 8.1 mph - N/A   Overcast
4:54 AM 26.1 °F 19.4 °F 16.0 °F 66% 30.32 in 10.0 mi South 5.8 mph - N/A   Overcast
5:42 AM 26.1 °F 19.4 °F 16.0 °F 66% 30.31 in 10.0 mi South 5.8 mph - N/A   Overcast
5:54 AM 26.1 °F 21.9 °F 16.0 °F 66% 30.33 in 10.0 mi South 3.5 mph - N/A   Overcast
6:54 AM 27.0 °F 21.6 °F 17.1 °F 66% 30.32 in 10.0 mi South 4.6 mph - N/A   Overcast
7:54 AM 27.0 °F 23.0 °F 18.0 °F 69% 30.33 in 10.0 mi SSE 3.5 mph - N/A   Overcast
8:54 AM 28.0 °F - 19.0 °F 69% 30.33 in 10.0 mi Calm Calm - N/A   Overcast
9:23 AM 28.0 °F - 19.0 °F 69% 30.32 in 10.0 mi Calm Calm - N/A   Overcast
9:54 AM 28.9 °F 25.2 °F 19.9 °F 69% 30.34 in 10.0 mi SSW 3.5 mph - N/A   Overcast
10:26 AM 30.9 °F 25.2 °F 24.1 °F 76% 30.32 in 10.0 mi WSW 5.8 mph - N/A   Overcast
10:54 AM 30.9 °F 24.3 °F 25.0 °F 79% 30.32 in 10.0 mi West 6.9 mph - N/A   Overcast
11:31 AM 32.0 °F 24.8 °F 25.0 °F 75% 30.29 in 10.0 mi WSW 8.1 mph - N/A   Overcast
11:54 AM 33.1 °F 26.1 °F 26.1 °F 75% 30.30 in 10.0 mi WSW 8.1 mph - N/A   Overcast
12:54 PM 33.1 °F 26.1 °F 27.0 °F 78% 30.27 in 9.0 mi WSW 8.1 mph - N/A   Overcast
1:54 PM 34.0 °F 25.0 °F 28.0 °F 79% 30.25 in 9.0 mi WSW 12.7 mph - N/A   Overcast
2:54 PM 35.1 °F 27.4 °F 28.0 °F 76% 30.25 in 8.0 mi West 10.4 mph - N/A   Overcast
3:54 PM 35.1 °F 26.9 °F 28.0 °F 76% 30.26 in 8.0 mi WSW 11.5 mph - N/A   Overcast
4:54 PM 34.0 °F 25.5 °F 28.0 °F 79% 30.27 in 9.0 mi West 11.5 mph - N/A   Overcast
5:54 PM 34.0 °F 25.0 °F 28.9 °F 82% 30.28 in 8.0 mi WSW 12.7 mph - N/A   Overcast
6:54 PM 34.0 °F 26.6 °F 28.9 °F 82% 30.29 in 8.0 mi West 9.2 mph - N/A   Overcast
7:54 PM 34.0 °F 26.6 °F 28.0 °F 79% 30.30 in 9.0 mi West 9.2 mph - N/A   Overcast
8:54 PM 34.0 °F 27.2 °F 28.0 °F 79% 30.30 in 9.0 mi WSW 8.1 mph - N/A   Overcast
9:17 PM 34.0 °F 28.8 °F 28.0 °F 79% 30.29 in 9.0 mi West 5.8 mph - N/A   Overcast
9:54 PM 34.0 °F 28.0 °F 28.9 °F 82% 30.31 in 9.0 mi West 6.9 mph - N/A   Overcast
10:54 PM 33.1 °F 26.9 °F 28.0 °F 82% 30.32 in 8.0 mi West 6.9 mph - N/A   Overcast
11:54 PM 33.1 °F 27.7 °F 28.0 °F 82% 30.32 in 8.0 mi West 5.8 mph - N/A   Overcast